{"data":{"norad_id":62059,"epoch":"2026-05-25T04:03:00.964224Z","epoch_age_seconds":63540,"freshness":"FRESH","line1":"1 62059U 24217C   26145.16876116  .00243403  00000+0  19495-2 0  9997","line2":"2 62059  53.1569  54.3751 0001035  96.4297 263.6839 15.69784834 87180","mean_motion":15.69784834,"eccentricity":0.0001035,"inclination_deg":53.1569,"raan_deg":54.3751,"arg_perigee_deg":96.4297,"mean_anomaly_deg":263.6839,"bstar":0.0019495,"rev_number":8718,"period_min":91.732316990903,"perigee_km":358.81526592908,"apogee_km":360.2099593989,"semimajor_km":6737.649612664,"source":"CELESTRAK","updated_at":"2026-05-25T13:38:19.529833Z"}}